﻿<?xml version="1.0" encoding="UTF-8" standalone="no" ?>
<gpx xmlns="http://www.topografix.com/GPX/1/1" creator="CompeGPS" version="1.1" xmlns:xsi="http://www.w3.org/2001/XMLSchema-instance" xsi:schemaLocation="http://www.topografix.com/GPX/1/1 http://www.topografix.com/GPX/1/1/gpx.xsd http://www.garmin.com/xmlschemas/GpxExtensions/v3 http://www.garmin.com/xmlschemas/GpxExtensionsv3.xsd http://www.garmin.com/xmlschemas/TrackPointExtension/v1 http://www.garmin.com/xmlschemas/TrackPointExtensionv1.xsd" xmlns:gpxtpx="http://www.garmin.com/xmlschemas/TrackPointExtension/v1">
  <metadata>
    <link href="http://www.compegps.com">
      <text>CompeGPS TEAM, SL</text>
    </link>
    <time>2020-11-29T13:04:56Z</time>
    <bounds maxlat="44.622138" maxlon="6.700682" minlat="44.610665" minlon="6.698835"/>
  </metadata>
  <trk>
    <name>Rando_374</name>
    <trkseg>
      <trkpt lat="44.610773" lon="6.699072">
        <ele>2041.4</ele>
        <time>2020-07-16T06:34:55Z</time>
      </trkpt>
      <trkpt lat="44.610810" lon="6.699160">
        <ele>2043.4</ele>
        <time>2020-07-16T06:48:30Z</time>
      </trkpt>
      <trkpt lat="44.610813" lon="6.699280">
        <ele>2047.6</ele>
        <time>2020-07-16T06:48:46Z</time>
      </trkpt>
      <trkpt lat="44.610750" lon="6.699365">
        <ele>2051.3</ele>
        <time>2020-07-16T06:49:01Z</time>
      </trkpt>
      <trkpt lat="44.610680" lon="6.699432">
        <ele>2052.8</ele>
        <time>2020-07-16T06:49:26Z</time>
      </trkpt>
      <trkpt lat="44.610673" lon="6.699555">
        <ele>2055.6</ele>
        <time>2020-07-16T06:49:42Z</time>
      </trkpt>
      <trkpt lat="44.610665" lon="6.699632">
        <ele>2059.5</ele>
        <time>2020-07-16T06:50:10Z</time>
      </trkpt>
      <trkpt lat="44.610683" lon="6.699747">
        <ele>2064.6</ele>
        <time>2020-07-16T06:50:19Z</time>
      </trkpt>
      <trkpt lat="44.610677" lon="6.699870">
        <ele>2067.6</ele>
        <time>2020-07-16T06:50:34Z</time>
      </trkpt>
      <trkpt lat="44.610690" lon="6.699992">
        <ele>2069.9</ele>
        <time>2020-07-16T06:50:46Z</time>
      </trkpt>
      <trkpt lat="44.610778" lon="6.700013">
        <ele>2075.6</ele>
        <time>2020-07-16T06:51:18Z</time>
      </trkpt>
      <trkpt lat="44.610858" lon="6.699962">
        <ele>2080.0</ele>
        <time>2020-07-16T06:51:37Z</time>
      </trkpt>
      <trkpt lat="44.610940" lon="6.699925">
        <ele>2084.6</ele>
        <time>2020-07-16T06:51:57Z</time>
      </trkpt>
      <trkpt lat="44.611028" lon="6.699910">
        <ele>2089.7</ele>
        <time>2020-07-16T06:52:20Z</time>
      </trkpt>
      <trkpt lat="44.611113" lon="6.699893">
        <ele>2095.0</ele>
        <time>2020-07-16T06:52:43Z</time>
      </trkpt>
      <trkpt lat="44.611167" lon="6.699903">
        <ele>2095.8</ele>
        <time>2020-07-16T06:53:01Z</time>
      </trkpt>
      <trkpt lat="44.611255" lon="6.699902">
        <ele>2097.2</ele>
        <time>2020-07-16T06:53:09Z</time>
      </trkpt>
      <trkpt lat="44.611343" lon="6.699905">
        <ele>2099.6</ele>
        <time>2020-07-16T06:53:26Z</time>
      </trkpt>
      <trkpt lat="44.611413" lon="6.699902">
        <ele>2102.5</ele>
        <time>2020-07-16T06:53:47Z</time>
      </trkpt>
      <trkpt lat="44.611502" lon="6.699920">
        <ele>2103.6</ele>
        <time>2020-07-16T06:53:56Z</time>
      </trkpt>
      <trkpt lat="44.611590" lon="6.699940">
        <ele>2105.5</ele>
        <time>2020-07-16T06:54:10Z</time>
      </trkpt>
      <trkpt lat="44.611652" lon="6.700020">
        <ele>2105.8</ele>
        <time>2020-07-16T06:54:21Z</time>
      </trkpt>
      <trkpt lat="44.611715" lon="6.700105">
        <ele>2107.7</ele>
        <time>2020-07-16T06:54:35Z</time>
      </trkpt>
      <trkpt lat="44.611783" lon="6.700173">
        <ele>2110.9</ele>
        <time>2020-07-16T06:55:16Z</time>
      </trkpt>
      <trkpt lat="44.611867" lon="6.700205">
        <ele>2115.9</ele>
        <time>2020-07-16T06:55:19Z</time>
      </trkpt>
      <trkpt lat="44.611948" lon="6.700235">
        <ele>2118.4</ele>
        <time>2020-07-16T06:55:34Z</time>
      </trkpt>
      <trkpt lat="44.612032" lon="6.700253">
        <ele>2119.4</ele>
        <time>2020-07-16T06:55:48Z</time>
      </trkpt>
      <trkpt lat="44.612110" lon="6.700295">
        <ele>2122.1</ele>
        <time>2020-07-16T06:56:06Z</time>
      </trkpt>
      <trkpt lat="44.612180" lon="6.700372">
        <ele>2124.9</ele>
        <time>2020-07-16T06:56:21Z</time>
      </trkpt>
      <trkpt lat="44.612247" lon="6.700452">
        <ele>2127.8</ele>
        <time>2020-07-16T06:56:36Z</time>
      </trkpt>
      <trkpt lat="44.612333" lon="6.700480">
        <ele>2132.0</ele>
        <time>2020-07-16T06:56:55Z</time>
      </trkpt>
      <trkpt lat="44.612422" lon="6.700487">
        <ele>2134.4</ele>
        <time>2020-07-16T06:57:16Z</time>
      </trkpt>
      <trkpt lat="44.612470" lon="6.700548">
        <ele>2133.5</ele>
        <time>2020-07-16T06:57:42Z</time>
      </trkpt>
      <trkpt lat="44.612547" lon="6.700603">
        <ele>2135.7</ele>
        <time>2020-07-16T06:57:52Z</time>
      </trkpt>
      <trkpt lat="44.612632" lon="6.700623">
        <ele>2134.3</ele>
        <time>2020-07-16T06:58:08Z</time>
      </trkpt>
      <trkpt lat="44.612710" lon="6.700682">
        <ele>2136.4</ele>
        <time>2020-07-16T06:58:51Z</time>
      </trkpt>
      <trkpt lat="44.612768" lon="6.700587">
        <ele>2142.0</ele>
        <time>2020-07-16T06:59:26Z</time>
      </trkpt>
      <trkpt lat="44.612790" lon="6.700467">
        <ele>2145.4</ele>
        <time>2020-07-16T06:59:43Z</time>
      </trkpt>
      <trkpt lat="44.612835" lon="6.700363">
        <ele>2146.5</ele>
        <time>2020-07-16T07:00:04Z</time>
      </trkpt>
      <trkpt lat="44.612885" lon="6.700268">
        <ele>2146.7</ele>
        <time>2020-07-16T07:00:20Z</time>
      </trkpt>
      <trkpt lat="44.612925" lon="6.700162">
        <ele>2148.4</ele>
        <time>2020-07-16T07:00:36Z</time>
      </trkpt>
      <trkpt lat="44.612962" lon="6.700052">
        <ele>2149.2</ele>
        <time>2020-07-16T07:00:49Z</time>
      </trkpt>
      <trkpt lat="44.613022" lon="6.699963">
        <ele>2148.6</ele>
        <time>2020-07-16T07:01:03Z</time>
      </trkpt>
      <trkpt lat="44.613098" lon="6.699902">
        <ele>2148.0</ele>
        <time>2020-07-16T07:01:21Z</time>
      </trkpt>
      <trkpt lat="44.613183" lon="6.699907">
        <ele>2147.9</ele>
        <time>2020-07-16T07:01:37Z</time>
      </trkpt>
      <trkpt lat="44.613267" lon="6.699885">
        <ele>2148.4</ele>
        <time>2020-07-16T07:01:51Z</time>
      </trkpt>
      <trkpt lat="44.613335" lon="6.699813">
        <ele>2149.8</ele>
        <time>2020-07-16T07:02:03Z</time>
      </trkpt>
      <trkpt lat="44.613405" lon="6.699743">
        <ele>2151.1</ele>
        <time>2020-07-16T07:02:16Z</time>
      </trkpt>
      <trkpt lat="44.613480" lon="6.699680">
        <ele>2153.1</ele>
        <time>2020-07-16T07:02:30Z</time>
      </trkpt>
      <trkpt lat="44.613562" lon="6.699640">
        <ele>2155.9</ele>
        <time>2020-07-16T07:02:45Z</time>
      </trkpt>
      <trkpt lat="44.613643" lon="6.699593">
        <ele>2161.5</ele>
        <time>2020-07-16T07:03:03Z</time>
      </trkpt>
      <trkpt lat="44.613730" lon="6.699568">
        <ele>2166.5</ele>
        <time>2020-07-16T07:03:20Z</time>
      </trkpt>
      <trkpt lat="44.613817" lon="6.699535">
        <ele>2170.5</ele>
        <time>2020-07-16T07:03:35Z</time>
      </trkpt>
      <trkpt lat="44.613893" lon="6.699505">
        <ele>2174.0</ele>
        <time>2020-07-16T07:03:53Z</time>
      </trkpt>
      <trkpt lat="44.613973" lon="6.699470">
        <ele>2175.8</ele>
        <time>2020-07-16T07:04:06Z</time>
      </trkpt>
      <trkpt lat="44.614055" lon="6.699462">
        <ele>2178.8</ele>
        <time>2020-07-16T07:04:27Z</time>
      </trkpt>
      <trkpt lat="44.614138" lon="6.699462">
        <ele>2179.0</ele>
        <time>2020-07-16T07:04:40Z</time>
      </trkpt>
      <trkpt lat="44.614218" lon="6.699407">
        <ele>2179.2</ele>
        <time>2020-07-16T07:04:54Z</time>
      </trkpt>
      <trkpt lat="44.614297" lon="6.699347">
        <ele>2180.6</ele>
        <time>2020-07-16T07:05:07Z</time>
      </trkpt>
      <trkpt lat="44.614358" lon="6.699258">
        <ele>2182.3</ele>
        <time>2020-07-16T07:05:19Z</time>
      </trkpt>
      <trkpt lat="44.614425" lon="6.699178">
        <ele>2185.1</ele>
        <time>2020-07-16T07:05:31Z</time>
      </trkpt>
      <trkpt lat="44.614483" lon="6.699088">
        <ele>2187.8</ele>
        <time>2020-07-16T07:05:43Z</time>
      </trkpt>
      <trkpt lat="44.614552" lon="6.699008">
        <ele>2190.2</ele>
        <time>2020-07-16T07:05:56Z</time>
      </trkpt>
      <trkpt lat="44.614630" lon="6.698953">
        <ele>2193.2</ele>
        <time>2020-07-16T07:06:14Z</time>
      </trkpt>
      <trkpt lat="44.614710" lon="6.698905">
        <ele>2194.8</ele>
        <time>2020-07-16T07:06:27Z</time>
      </trkpt>
      <trkpt lat="44.614790" lon="6.698868">
        <ele>2197.1</ele>
        <time>2020-07-16T07:06:39Z</time>
      </trkpt>
      <trkpt lat="44.614868" lon="6.698835">
        <ele>2199.5</ele>
        <time>2020-07-16T07:06:52Z</time>
      </trkpt>
      <trkpt lat="44.614950" lon="6.698885">
        <ele>2201.4</ele>
        <time>2020-07-16T07:07:07Z</time>
      </trkpt>
      <trkpt lat="44.615037" lon="6.698887">
        <ele>2203.5</ele>
        <time>2020-07-16T07:07:26Z</time>
      </trkpt>
      <trkpt lat="44.615117" lon="6.698927">
        <ele>2205.5</ele>
        <time>2020-07-16T07:07:57Z</time>
      </trkpt>
      <trkpt lat="44.615200" lon="6.698923">
        <ele>2204.4</ele>
        <time>2020-07-16T07:08:11Z</time>
      </trkpt>
      <trkpt lat="44.615283" lon="6.698935">
        <ele>2204.8</ele>
        <time>2020-07-16T07:08:25Z</time>
      </trkpt>
      <trkpt lat="44.615365" lon="6.698923">
        <ele>2204.9</ele>
        <time>2020-07-16T07:08:40Z</time>
      </trkpt>
      <trkpt lat="44.615450" lon="6.698960">
        <ele>2204.6</ele>
        <time>2020-07-16T07:08:56Z</time>
      </trkpt>
      <trkpt lat="44.615537" lon="6.698978">
        <ele>2204.9</ele>
        <time>2020-07-16T07:09:11Z</time>
      </trkpt>
      <trkpt lat="44.615618" lon="6.699003">
        <ele>2204.2</ele>
        <time>2020-07-16T07:09:23Z</time>
      </trkpt>
      <trkpt lat="44.615705" lon="6.698985">
        <ele>2206.5</ele>
        <time>2020-07-16T07:09:41Z</time>
      </trkpt>
      <trkpt lat="44.615793" lon="6.698983">
        <ele>2208.3</ele>
        <time>2020-07-16T07:09:58Z</time>
      </trkpt>
      <trkpt lat="44.615882" lon="6.698977">
        <ele>2209.6</ele>
        <time>2020-07-16T07:10:17Z</time>
      </trkpt>
      <trkpt lat="44.615968" lon="6.698957">
        <ele>2210.1</ele>
        <time>2020-07-16T07:10:34Z</time>
      </trkpt>
      <trkpt lat="44.616045" lon="6.698972">
        <ele>2211.1</ele>
        <time>2020-07-16T07:10:53Z</time>
      </trkpt>
      <trkpt lat="44.616133" lon="6.698980">
        <ele>2211.6</ele>
        <time>2020-07-16T07:11:05Z</time>
      </trkpt>
      <trkpt lat="44.616218" lon="6.698977">
        <ele>2214.9</ele>
        <time>2020-07-16T07:11:23Z</time>
      </trkpt>
      <trkpt lat="44.616305" lon="6.698990">
        <ele>2217.1</ele>
        <time>2020-07-16T07:11:41Z</time>
      </trkpt>
      <trkpt lat="44.616300" lon="6.699113">
        <ele>2220.7</ele>
        <time>2020-07-16T07:12:10Z</time>
      </trkpt>
      <trkpt lat="44.616378" lon="6.699170">
        <ele>2223.5</ele>
        <time>2020-07-16T07:12:30Z</time>
      </trkpt>
      <trkpt lat="44.616430" lon="6.699267">
        <ele>2226.7</ele>
        <time>2020-07-16T07:12:52Z</time>
      </trkpt>
      <trkpt lat="44.616517" lon="6.699273">
        <ele>2228.8</ele>
        <time>2020-07-16T07:13:08Z</time>
      </trkpt>
      <trkpt lat="44.616605" lon="6.699250">
        <ele>2232.2</ele>
        <time>2020-07-16T07:13:25Z</time>
      </trkpt>
      <trkpt lat="44.616690" lon="6.699273">
        <ele>2233.8</ele>
        <time>2020-07-16T07:13:41Z</time>
      </trkpt>
      <trkpt lat="44.616768" lon="6.699333">
        <ele>2236.2</ele>
        <time>2020-07-16T07:13:56Z</time>
      </trkpt>
      <trkpt lat="44.616857" lon="6.699343">
        <ele>2238.1</ele>
        <time>2020-07-16T07:14:09Z</time>
      </trkpt>
      <trkpt lat="44.616943" lon="6.699367">
        <ele>2239.5</ele>
        <time>2020-07-16T07:14:23Z</time>
      </trkpt>
      <trkpt lat="44.617008" lon="6.699453">
        <ele>2240.8</ele>
        <time>2020-07-16T07:14:37Z</time>
      </trkpt>
      <trkpt lat="44.617097" lon="6.699438">
        <ele>2244.0</ele>
        <time>2020-07-16T07:14:54Z</time>
      </trkpt>
      <trkpt lat="44.617155" lon="6.699343">
        <ele>2246.7</ele>
        <time>2020-07-16T07:15:07Z</time>
      </trkpt>
      <trkpt lat="44.617232" lon="6.699278">
        <ele>2249.0</ele>
        <time>2020-07-16T07:15:23Z</time>
      </trkpt>
      <trkpt lat="44.617317" lon="6.699252">
        <ele>2252.5</ele>
        <time>2020-07-16T07:15:41Z</time>
      </trkpt>
      <trkpt lat="44.617398" lon="6.699222">
        <ele>2255.4</ele>
        <time>2020-07-16T07:15:57Z</time>
      </trkpt>
      <trkpt lat="44.617483" lon="6.699232">
        <ele>2257.4</ele>
        <time>2020-07-16T07:16:09Z</time>
      </trkpt>
      <trkpt lat="44.617570" lon="6.699240">
        <ele>2258.3</ele>
        <time>2020-07-16T07:16:24Z</time>
      </trkpt>
      <trkpt lat="44.617658" lon="6.699243">
        <ele>2258.6</ele>
        <time>2020-07-16T07:16:36Z</time>
      </trkpt>
      <trkpt lat="44.617747" lon="6.699245">
        <ele>2258.3</ele>
        <time>2020-07-16T07:16:50Z</time>
      </trkpt>
      <trkpt lat="44.617833" lon="6.699265">
        <ele>2260.1</ele>
        <time>2020-07-16T07:17:03Z</time>
      </trkpt>
      <trkpt lat="44.617920" lon="6.699298">
        <ele>2262.0</ele>
        <time>2020-07-16T07:17:19Z</time>
      </trkpt>
      <trkpt lat="44.618002" lon="6.699350">
        <ele>2261.9</ele>
        <time>2020-07-16T07:17:33Z</time>
      </trkpt>
      <trkpt lat="44.618067" lon="6.699423">
        <ele>2263.5</ele>
        <time>2020-07-16T07:17:45Z</time>
      </trkpt>
      <trkpt lat="44.618125" lon="6.699518">
        <ele>2263.5</ele>
        <time>2020-07-16T07:17:55Z</time>
      </trkpt>
      <trkpt lat="44.618190" lon="6.699592">
        <ele>2263.4</ele>
        <time>2020-07-16T07:18:05Z</time>
      </trkpt>
      <trkpt lat="44.618257" lon="6.699670">
        <ele>2264.1</ele>
        <time>2020-07-16T07:18:15Z</time>
      </trkpt>
      <trkpt lat="44.618327" lon="6.699743">
        <ele>2264.9</ele>
        <time>2020-07-16T07:18:27Z</time>
      </trkpt>
      <trkpt lat="44.618380" lon="6.699828">
        <ele>2266.0</ele>
        <time>2020-07-16T07:18:41Z</time>
      </trkpt>
      <trkpt lat="44.618440" lon="6.699917">
        <ele>2267.2</ele>
        <time>2020-07-16T07:18:52Z</time>
      </trkpt>
      <trkpt lat="44.618485" lon="6.700022">
        <ele>2268.3</ele>
        <time>2020-07-16T07:19:05Z</time>
      </trkpt>
      <trkpt lat="44.618552" lon="6.700115">
        <ele>2270.0</ele>
        <time>2020-07-16T07:19:21Z</time>
      </trkpt>
      <trkpt lat="44.618628" lon="6.700160">
        <ele>2271.0</ele>
        <time>2020-07-16T07:19:33Z</time>
      </trkpt>
      <trkpt lat="44.618708" lon="6.700207">
        <ele>2271.6</ele>
        <time>2020-07-16T07:19:55Z</time>
      </trkpt>
      <trkpt lat="44.618785" lon="6.700248">
        <ele>2272.3</ele>
        <time>2020-07-16T07:20:12Z</time>
      </trkpt>
      <trkpt lat="44.618865" lon="6.700300">
        <ele>2273.0</ele>
        <time>2020-07-16T07:20:25Z</time>
      </trkpt>
      <trkpt lat="44.618938" lon="6.700370">
        <ele>2274.0</ele>
        <time>2020-07-16T07:20:40Z</time>
      </trkpt>
      <trkpt lat="44.619020" lon="6.700403">
        <ele>2274.9</ele>
        <time>2020-07-16T07:20:50Z</time>
      </trkpt>
      <trkpt lat="44.619105" lon="6.700440">
        <ele>2276.1</ele>
        <time>2020-07-16T07:21:06Z</time>
      </trkpt>
      <trkpt lat="44.619178" lon="6.700383">
        <ele>2277.0</ele>
        <time>2020-07-16T07:21:18Z</time>
      </trkpt>
      <trkpt lat="44.619258" lon="6.700332">
        <ele>2277.7</ele>
        <time>2020-07-16T07:21:29Z</time>
      </trkpt>
      <trkpt lat="44.619337" lon="6.700272">
        <ele>2278.2</ele>
        <time>2020-07-16T07:21:41Z</time>
      </trkpt>
      <trkpt lat="44.619413" lon="6.700212">
        <ele>2278.8</ele>
        <time>2020-07-16T07:21:53Z</time>
      </trkpt>
      <trkpt lat="44.619500" lon="6.700203">
        <ele>2279.3</ele>
        <time>2020-07-16T07:22:08Z</time>
      </trkpt>
      <trkpt lat="44.619583" lon="6.700227">
        <ele>2278.8</ele>
        <time>2020-07-16T07:22:19Z</time>
      </trkpt>
      <trkpt lat="44.619672" lon="6.700243">
        <ele>2278.3</ele>
        <time>2020-07-16T07:22:34Z</time>
      </trkpt>
      <trkpt lat="44.619755" lon="6.700278">
        <ele>2278.7</ele>
        <time>2020-07-16T07:22:45Z</time>
      </trkpt>
      <trkpt lat="44.619842" lon="6.700290">
        <ele>2279.3</ele>
        <time>2020-07-16T07:22:58Z</time>
      </trkpt>
      <trkpt lat="44.619928" lon="6.700265">
        <ele>2279.9</ele>
        <time>2020-07-16T07:23:15Z</time>
      </trkpt>
      <trkpt lat="44.620015" lon="6.700278">
        <ele>2281.9</ele>
        <time>2020-07-16T07:23:33Z</time>
      </trkpt>
      <trkpt lat="44.620102" lon="6.700250">
        <ele>2284.3</ele>
        <time>2020-07-16T07:23:55Z</time>
      </trkpt>
      <trkpt lat="44.620187" lon="6.700262">
        <ele>2285.2</ele>
        <time>2020-07-16T07:24:08Z</time>
      </trkpt>
      <trkpt lat="44.620265" lon="6.700318">
        <ele>2286.6</ele>
        <time>2020-07-16T07:24:23Z</time>
      </trkpt>
      <trkpt lat="44.620195" lon="6.700385">
        <ele>2289.4</ele>
        <time>2020-07-16T07:24:44Z</time>
      </trkpt>
      <trkpt lat="44.620253" lon="6.700395">
        <ele>2291.2</ele>
        <time>2020-07-16T07:25:32Z</time>
      </trkpt>
      <trkpt lat="44.620340" lon="6.700390">
        <ele>2295.1</ele>
        <time>2020-07-16T07:25:38Z</time>
      </trkpt>
      <trkpt lat="44.620425" lon="6.700360">
        <ele>2302.5</ele>
        <time>2020-07-16T07:25:58Z</time>
      </trkpt>
      <trkpt lat="44.620513" lon="6.700353">
        <ele>2315.0</ele>
        <time>2020-07-16T07:26:21Z</time>
      </trkpt>
      <trkpt lat="44.620600" lon="6.700338">
        <ele>2322.2</ele>
        <time>2020-07-16T07:26:42Z</time>
      </trkpt>
      <trkpt lat="44.620685" lon="6.700307">
        <ele>2326.0</ele>
        <time>2020-07-16T07:27:01Z</time>
      </trkpt>
      <trkpt lat="44.620788" lon="6.700322">
        <ele>2330.0</ele>
        <time>2020-07-16T07:27:23Z</time>
      </trkpt>
      <trkpt lat="44.620873" lon="6.700337">
        <ele>2333.4</ele>
        <time>2020-07-16T07:27:37Z</time>
      </trkpt>
      <trkpt lat="44.620937" lon="6.700385">
        <ele>2334.7</ele>
        <time>2020-07-16T07:27:56Z</time>
      </trkpt>
      <trkpt lat="44.621033" lon="6.700403">
        <ele>2335.3</ele>
        <time>2020-07-16T07:28:08Z</time>
      </trkpt>
      <trkpt lat="44.621122" lon="6.700427">
        <ele>2337.3</ele>
        <time>2020-07-16T07:28:26Z</time>
      </trkpt>
      <trkpt lat="44.621221" lon="6.700435">
        <ele>2338.0</ele>
        <time>2020-07-16T07:28:48Z</time>
      </trkpt>
      <trkpt lat="44.621307" lon="6.700463">
        <ele>2337.5</ele>
        <time>2020-07-16T07:29:03Z</time>
      </trkpt>
      <trkpt lat="44.621392" lon="6.700488">
        <ele>2335.8</ele>
        <time>2020-07-16T07:29:21Z</time>
      </trkpt>
      <trkpt lat="44.621477" lon="6.700543">
        <ele>2336.1</ele>
        <time>2020-07-16T07:29:41Z</time>
      </trkpt>
      <trkpt lat="44.621560" lon="6.700573">
        <ele>2335.7</ele>
        <time>2020-07-16T07:29:55Z</time>
      </trkpt>
      <trkpt lat="44.621635" lon="6.700603">
        <ele>2336.4</ele>
        <time>2020-07-16T07:30:10Z</time>
      </trkpt>
      <trkpt lat="44.621720" lon="6.700637">
        <ele>2339.3</ele>
        <time>2020-07-16T07:30:25Z</time>
      </trkpt>
      <trkpt lat="44.621808" lon="6.700632">
        <ele>2342.7</ele>
        <time>2020-07-16T07:30:40Z</time>
      </trkpt>
      <trkpt lat="44.621893" lon="6.700623">
        <ele>2346.5</ele>
        <time>2020-07-16T07:30:57Z</time>
      </trkpt>
      <trkpt lat="44.621977" lon="6.700652">
        <ele>2350.2</ele>
        <time>2020-07-16T07:31:12Z</time>
      </trkpt>
      <trkpt lat="44.622062" lon="6.700643">
        <ele>2355.2</ele>
        <time>2020-07-16T07:31:28Z</time>
      </trkpt>
      <trkpt lat="44.622138" lon="6.700587">
        <ele>2359.5</ele>
        <time>2020-07-16T07:31:45Z</time>
      </trkpt>
    </trkseg>
  </trk>
</gpx>
